User: anonymous   Login
Location: Unspecified
(0.0000°N, 0.0000°E)
Time: 01:56:34
(UTC+00:00)
Language:

STARLINK-11146 [DTC] - Orbit

View from above orbital plane
View from above orbital plane
View from above satellite
View from above satellite

Ground track
Ground track

The orbit is defined by the following mean orbital elements,

1 60729U          26145.13075633 +.00000000 +00000-0 +82596-5 0 00008
2 60729  53.1586  99.2218 0000949  78.0583 282.0541 15.69710261    08
Epoch (UTC): 25 May 2026 03:08:17
Eccentricity: 0.0000949
inclination: 53.1586°
perigee height: 359 km
apogee height: 360 km
right ascension of ascending node: 99.2218°
argument of perigee: 78.0583°
revolutions per day: 15.69710261
mean anomaly at epoch: 282.0541°

The dashed part of the orbit path shows where the satellite is in the earth's shadow,  

DLR